User: anonymous   Login
Location: Mercogliano
(40.9167°N, 14.7333°E)
Time: 02:33:09
(UTC+00:00)
Language:

Milstar 3 Cent rocket - Orbit

View from above orbital plane
View from above orbital plane
View from above satellite
View from above satellite

Ground track
Ground track

The orbit data is extracted from the following two-line orbital elements,

1 25725U 99023B   20335.49531782 +.00000021 +00000-0 +70941-5 0  9995
2 25725 028.3181 045.1782 2384379 038.5555 336.3261 09.67264284060907
Epoch (UTC): 30 November 2020 11:53:15
Eccentricity: 0.2384379
inclination: 28.3181°
perigee height: 708 km
apogee height: 5145 km
right ascension of ascending node: 45.1782°
argument of perigee: 38.5555°
revolutions per day: 9.67264284
mean anomaly at epoch: 336.3261°
orbit number at epoch: 6090

The dashed part of the orbit path shows where the satellite is in the earth's shadow,  

DLR